Location: Linton
(52.0940°N, 0.2850°E)
Time: 21:52:43
(UTC+01:00)

ISS - Pass Details

Date: 07 October 2017
Orbit: 400 x 408 km, 51.6° (Epoch: 24 October)

Event Time Altitude Azimuth Distance (km) Brightness Sun altitude
Rises 19:27:17 0° 274° (W) 2,326 2.3 -10.8°
Reaches altitude 10° 19:29:22 10° 273° (W) 1,467 0.6 -11.1°
Maximum altitude 19:32:39 81° 188° (S) 417 -3.8 -11.6°
Enters shadow 19:34:45 21° 101° (E) 988 -2.5 -12.0°
